Flag for Uruguay Weather past 2 weeks in Melo, Uruguay

Now
61 °F

Partly sunny.


Feels Like: 61 °F
Forecast: 39 / 66 °F
Wind: 7 mph from Southeast

Location: Pelotas Airport

Current Time: Aug 29, 2014 at 12:14:32 PM

Latest Report: Aug 29, 2014 at 11:00 AM


Visibility: N/A

Pressure: 30.21 "Hg

Humidity: 77%

Dew point: 54 °F

Location of MeloLocation

Historic Weather in Melo — Graph

°F

Melo temperature yesterday

Maximum temperature yesterday: 59 °F (at 3:00 PM)
Minimum temperature yesterday: 41 °F (at 12:00 AM)
Average temperature yesterday: 49 °F

Past Weeks' High & Low Weather Summary

 TemperatureHumidityPressure
High88 °F (Aug 24, 12:00 PM)100% (Aug 15, 10:00 PM)30.42 "Hg (Aug 15, 10:00 PM)
Low36 °F (Aug 15, 6:00 AM)33% (Aug 14, 11:00 AM)29.59 "Hg (Aug 24, 9:00 PM)
Average57 °F82%30.08 "Hg
* Reported Aug 14 11:00 AM — Aug 29 11:00 AM, Melo, Weather by CustomWeather, © 2014

Note: Actual official high and low records may vary slightly from our data, if they occured in-between our weather recording intervals... More about our weather records

Advertising

Melo weather history for previous 24 hours

 ConditionsComfort  
Time TempWeatherWind HumidityBarometerVisibility
11:00 AM
Aug 29
61 °FPartly sunny.7 mph77%30.21 "HgN/A
10:00 AM57 °FBroken clouds.5 mph88%30.21 "HgN/A
9:00 AM55 °FBroken clouds.1 mph88%30.21 "Hg6 mi
8:00 AM50 °FPartly sunny.1 mph100%30.21 "Hg4 mi
7:00 AM50 °FOvercast.No wind94%30.18 "Hg5 mi
6:00 AM48 °FPartly sunny.No wind100%30.18 "HgN/A
5:00 AM48 °FPassing clouds.No wind100%30.18 "HgN/A
4:00 AM48 °FPassing clouds.No wind94%30.18 "HgN/A
3:00 AM48 °FPassing clouds.No wind94%30.21 "HgN/A
2:00 AM48 °FPartly cloudy.3 mph94%30.21 "HgN/A
1:00 AM43 °FPassing clouds.No wind93%30.21 "HgN/A
12:00 AM45 °FClear.No wind93%30.21 "Hg10 mi
11:00 PM
Aug 28
46 °FClear.3 mph93%30.21 "Hg10 mi
10:00 PM46 °FClear.No wind93%30.21 "Hg10 mi
9:00 PM46 °FClear.No wind93%30.21 "Hg10 mi
8:00 PM50 °FClear.1 mph88%30.21 "Hg10 mi
7:00 PM50 °FClear.3 mph82%30.21 "Hg10 mi
6:00 PM54 °FClear.6 mph72%30.18 "Hg10 mi
5:00 PM59 °FPassing clouds.7 mph63%30.18 "HgN/A
4:00 PM59 °FPassing clouds.7 mph59%30.18 "HgN/A
3:00 PM59 °FScattered clouds.5 mph55%30.18 "HgN/A
2:00 PM57 °FScattered clouds.No wind63%30.18 "HgN/A
1:00 PM57 °FScattered clouds.7 mph59%30.21 "HgN/A
12:00 PM55 °FPassing clouds.6 mph63%30.24 "HgN/A
Weather by CustomWeather, © 2014

See weather overviewHow to use our weather pages